Flag for Canada Weather past 2 weeks in Pictou County, Nova Scotia, Canada

Now
70 °F

Mild.


Feels Like: 72 °F
Forecast: N/A
Wind: 5 mph from Northwest

Location: Caribou Point

Current Time: Sep 2, 2015 at 7:15:11 PM

Latest Report: Sep 2, 2015 at 6:00 PM


Visibility: N/A

Pressure: 29.78 "Hg

Humidity: 78%

Dew point: 63 °F

Location of Pictou CountyLocation

Historic Weather in Pictou County — Graph

°F

Pictou County temperature yesterday

Maximum temperature yesterday: 67 °F (at 3:00 AM)
Minimum temperature yesterday: 58 °F (at 11:00 PM)
Average temperature yesterday: 60 °F

Past Weeks' High & Low Weather Summary

 TemperatureHumidityPressure
High83 °F (Aug 21, 3:00 PM)100% (Aug 27, 3:00 PM)30.24 "Hg (Aug 27, 3:00 PM)
Low51 °F (Sep 2, 4:00 AM)51% (Aug 31, 4:00 PM)29.62 "Hg (Aug 31, 8:00 PM)
Average69 °F84%30.00 "Hg
* Reported Aug 18 5:00 PM — Sep 2 5:00 PM, Pictou County, Weather by CustomWeather, © 2015

Note: Actual official high and low records may vary slightly from our data, if they occured in-between our weather recording intervals... More about our weather records

Advertising

Pictou County weather history for previous 24 hours

 ConditionsComfort  
Time TempWeatherWind HumidityBarometerVisibility
5:00 PM
Wed, Sep 2
72 °FMild.6 mph76%29.79 "HgN/A
4:00 PM72 °FMild.9 mph71%29.80 "HgN/A
3:00 PM77 °FMild.7 mph59%29.81 "HgN/A
2:00 PM77 °FMild.8 mph56%29.82 "HgN/A
1:00 PM75 °FMild.7 mph59%29.83 "HgN/A
12:00 PM71 °FMild.6 mph65%29.86 "HgN/A
11:00 AM66 °FMild.6 mph69%29.89 "HgN/A
10:00 AM63 °FMild.6 mph76%29.91 "HgN/A
9:00 AM59 °FCool.6 mph79%29.93 "HgN/A
8:00 AM55 °FCool.8 mph86%29.94 "HgN/A
7:00 AM53 °FCool.5 mph88%29.94 "HgN/A
6:00 AM51 °FCool.5 mph91%29.95 "HgN/A
5:00 AM51 °FCool.7 mph93%29.96 "HgN/A
4:00 AM51 °FCool.6 mph98%29.98 "HgN/A
3:00 AM53 °FCool.5 mph91%29.98 "HgN/A
2:00 AM53 °FCool.2 mph88%29.98 "HgN/A
1:00 AM57 °FCool.6 mph78%29.99 "HgN/A
12:00 AM57 °FCool.9 mph80%30.00 "HgN/A
11:00 PM
Tue, Sep 1
58 °FCool.9 mph73%30.01 "HgN/A
10:00 PM58 °FCool.12 mph76%30.01 "HgN/A
9:00 PM58 °FCool.14 mph76%30.00 "HgN/A
8:00 PM58 °FCool.15 mph77%29.98 "HgN/A
7:00 PM59 °FCool.18 mph78%29.98 "HgN/A
Weather by CustomWeather, © 2015

See weather overviewHow to use our weather pages